第七屆(2016)北區豐盛人生健樂長跑比賽
4 DEC, 2016 Saturday Temperature : 20°C;  Humidity : 81%
10公里跑
RaceCatNameChi RkOverall RkCat Bib NameEng NameChi Gender OfficialTime
10公里邀請賽 1 T281 CHAN KIN WAI 陳健威 M 00:36:09
10公里邀請賽 2 T285 CHAN HO CHEUNG 陳澔漳 M 00:36:11
10公里邀請賽 3 T283 HO YUNG YIN 何雍賢 M 00:36:51
10公里邀請賽 4 T282 HO CHUN HO 何振豪 M 00:37:01
10公里邀請賽 5 T284 LAU KAM FAI 劉錦輝 M 00:37:27
10公里先進組-男子 6 1 3398 LEUNG KAI KIN 梁啟堅 M 00:37:41
10公里邀請賽 7 T286 CHENG MO SUEN 鄭武宣 M 00:38:14
10公里邀請賽 8 T204 Lin CHeuk Fung 連卓峰 M 00:38:23
10公里學生甲組-男子 9 1 5024 LAU KWUN LEUNG 劉冠良 M 00:38:40
10公里公開組-男子 10 1 1119 WAN HAU CHUNG M 00:38:58
10公里先進組-男子 11 2 3302 TSO TING PONG M 00:39:17
10公里公開組-男子 12 2 1035 KWOK WAI KIN 郭偉建 M 00:39:23
10公里公開組-男子 13 3 1127 PUN TAK KIU 潘德翹 M 00:40:05
10公里邀請賽 14 T205 YUEN CHUN HONG 袁進康 M 00:40:17
10公里先進組-男子 15 3 3368 CHIU CHUN SING 趙振聲 M 00:40:19
10公里邀請賽 16 T245 Ko Kwok Fung 高國峰 M 00:40:24
10公里公開組-男子 17 4 1130 WONG YIK HO 黃亦皜 M 00:40:32
10公里先進組-男子 18 4 3350 CHAN TAT SANG 陳達生 M 00:40:43
10公里公開組-男子 19 5 1128 HO MAN HIN 何文軒 M 00:40:44
10公里公開組-男子 20 6 1069 LEUNG WING HONG 梁永康 M 00:41:15
10公里邀請賽 21 T243 Chung Lai Lung 鍾麗龍 M 00:41:36
10公里公開組-男子 22 7 1137 LAM HIU TUNG 林曉冬 M 00:41:51
10公里先進組-男子 23 5 3307 LAM CHI CHAM 林熾參 M 00:42:01
10公里先進組-男子 24 6 3120 CHOY KWOK WAI 蔡國偉 M 00:42:09
10公里公開組-男子 25 8 1002 LAU CHUNG MAN  劉頌文 M 00:42:10
10公里先進組-男子 26 7 3394 YUEN LAI TUNG 袁勵通 M 00:42:12
10公里先進組-男子 27 8 3239 KO SIU FUNG 高少峯 M 00:42:23
10公里邀請賽 28 T171 WONG CHI KIT 黃智傑 M 00:42:35
10公里先進組-男子 29 9 3377 CHUNG CHI FAI 鍾智輝 M 00:42:37
10公里先進組-男子 30 10 3177 CHOI FU WANG 蔡富宏 M 00:42:45
10公里邀請賽 31 T166 LI CHAK KEI 李澤基 M 00:42:47
10公里邀請賽 32 T203 Chan Sik Ning 陳鍚寧 M 00:42:50
10公里邀請賽 33 T212 HUNG YIN CHAU 洪賢洲 M 00:42:52
10公里學生甲組-男子 34 2 5114 LIN CHONG IOK  林松昱 M 00:42:53
10公里先進組-男子 35 11 3028 KWOK CHE WAI 郭志偉 M 00:42:58
10公里先進組-男子 36 12 3266 TONG HON MING 唐漢明 M 00:43:02
10公里邀請賽 37 T252 LEE Kam Wah 李金華 M 00:43:06
10公里公開組-男子 38 9 1042 KWOK WING YIN KEVIN 郭永賢 M 00:43:06
10公里邀請賽 39 T241 Tong Kim Ming 唐劍明 M 00:43:10
10公里先進組-男子 40 13 3326 WONG KA LUNG M 00:43:10
10公里邀請賽 40 T135 LAI CHUN KIT M 00:43:10
10公里先進組-男子 42 14 3166 NG WAI MAN 吳偉文 M 00:43:12
10公里學生甲組-男子 43 3 5020 CHIN HO MIN 錢浩勉 M 00:43:12
10公里公開組-男子 44 10 1145 CYRUS CHAN M 00:43:17
10公里學生甲組-男子 45 4 5089 CHAN KA HEI 陳家禧 M 00:43:31
10公里先進組-男子 46 15 3102 YIP CHUN CHUNG 葉振宗 M 00:43:35
10公里先進組-男子 47 16 3244 LAW KAI MING 羅佳明 M 00:43:47
10公里邀請賽 48 T173 LAM CHI WAN 林志弘 M 00:43:54
10公里先進組-男子 49 17 3235 LAU KIN PANG 劉健鵬 M 00:43:58
10公里邀請賽 50 T242 Wong Wing Sum 王穎深 M 00:44:00
10公里邀請賽 51 T206 CHAN KING HEI 陳景熙 M 00:44:03
10公里公開組-男子 52 11 1113 CHAU PAK CHING PATRICK 周柏澄 M 00:44:09
10公里邀請賽 53 T202 YEUNG CHI SHING 楊志成 M 00:44:09
10公里邀請賽 54 T164 TANG HOI WING 鄧海榮 M 00:44:13
10公里公開組-男子 55 12 1117 WAN KA MING 雲家明 M 00:44:21
10公里邀請賽 56 T244 Lam Tze Ho 林子豪 M 00:44:23
10公里公開組-男子 57 13 1005 LEE HO KWAN 李浩堃 M 00:44:23
10公里先進組-男子 58 18 3274 LI KIN WO 李健和 M 00:44:30
10公里邀請賽 59 T132 CHENG WING SEE F 00:44:31
10公里邀請賽 60 T156 YU WING FAI 余榮輝 M 00:44:50
10公里先進組-男子 61 19 3345 HUI KWOK CHUN 許國俊 M 00:45:03
10公里公開組-男子 62 14 1118 LAU KIN WAI 劉健威 M 00:45:19
10公里邀請賽 63 T163 HO YAU SHING 何友承 M 00:45:26
10公里學生甲組-男子 64 5 5021 CHOW TAK MING 周德銘 M 00:45:26
10公里邀請賽 65 T224 MAK CHI LEUNG 麥志良 M 00:45:27
10公里先進組-男子 66 20 3297 LUI KA WA ALEX M 00:45:34
10公里先進組-男子 67 21 3365 FUNG TAI WAI 馮大偉 M 00:45:34
10公里邀請賽 68 T133 YAU SIU KEI M 00:45:34
10公里先進組-男子 69 22 3079 CHAN CHI SUN  陳志新 M 00:45:37
10公里先進組-男子 70 23 3045 LAM HAK FAI 林克輝 M 00:45:44
10公里邀請賽 71 T222 CHU CHI WAI 朱志偉 M 00:45:46
10公里公開組-男子 72 15 1092 CHO PAK TONG 曹百堂 M 00:45:46
10公里先進組-男子 73 24 3304 LEE CHI KIN 李志堅 M 00:45:55
10公里先進組-男子 74 25 3210 SO WOON CHEUNG 蘇煥章 M 00:46:02
10公里先進組-男子 75 26 3083 CHOI MEI KEUNG 蔡美強 M 00:46:11
10公里公開組-男子 76 16 1024 TSUI WANG LEUNG 徐宏亮 M 00:46:12
10公里視障組 男子 77 1 M12 CHAN WAI LUN 陳偉倫 M 00:46:15
10公里公開組-男子 78 17 1016 YIU FU PUI 姚富培 M 00:46:18
10公里先進組-男子 79 27 3264 LOONG TING KEUNG 龍定強 M 00:46:18
10公里學生甲組-男子 80 6 5036 ZHOU MING JUN 周明俊 M 00:46:21
10公里先進組-男子 81 28 3006 CHIM WING LUN 詹永倫 M 00:46:28
10公里視障組 男子 82 2 M9 CHAN CHU SHUN 陳智順 M 00:46:29
10公里先進組-男子 83 29 3319 CHU FONG SANG 朱豐生 M 00:46:36
10公里邀請賽 84 T175 KWAN KA CHUN  關家進 M 00:46:38
10公里先進組-男子 85 30 3364 LI  KWONG 李光 M 00:46:42
10公里學生甲組-男子 86 7 5071 LAI CHEUK HO 黎卓灝 M 00:46:49
10公里先進組-男子 87 31 3296 CHUNG YAN KWOK 鍾恩國 M 00:46:49
10公里公開組-男子 88 18 1123 YIP YI HO 葉宜浩 M 00:46:55
10公里邀請賽 89 T215 LAU HIU FAI 劉曉輝 M 00:46:59
10公里邀請賽 90 T254 LAU Yat Ming  劉日明 M 00:46:59
10公里公開組-男子 91 19 1051 YUEN CHI KWONG 袁志光 M 00:47:04
10公里公開組-男子 92 20 1138 NG KA HO 吳家豪 M 00:47:05
10公里公開組-男子 93 21 1151 TSANG MAN WAI 曾文蔚 M 00:47:05
10公里邀請賽 94 T262 YEUN WANG CHEONG 阮宏昌 M 00:47:12
10公里先進組-男子 95 32 3179 JEFFREY TSANG M 00:47:13
10公里邀請賽 96 T141 MAK BENSON 麥永昌 M 00:47:19
10公里先進組-男子 97 33 3180 CHUI WAI SHING 徐偉誠 M 00:47:19
10公里先進組-男子 98 34 3175 KO YIU CHEONG 高耀昌 M 00:47:20
10公里學生甲組-男子 99 8 5019 WU CHUN YAN 胡俊仁 M 00:47:21
10公里公開組-男子 100 22 1104 CHAU CHI YUI 周志銳 M 00:47:22
10公里學生甲組-男子 101 9 5119 CHEUNG CHUN YIU 張俊遙 M 00:47:29
10公里先進組-男子 102 35 3171 CHAN TAK WAH 陳達華 M 00:47:29
10公里公開組-男子 103 23 1015 CHAU HGAI MING 周毅銘 M 00:47:30
10公里先進組-男子 104 36 3024 LI SHUN TIN  李順天 M 00:47:37
10公里先進組-男子 105 37 3078 CHEUNG SAI PANG 張世鵬 M 00:47:37
10公里學生甲組-男子 106 10 5033 LAU TSZ SHING 劉子誠 M 00:47:39
10公里先進組-男子 107 38 3080 PANG KA YIU 彭家耀 M 00:47:41
10公里先進組-男子 108 39 3027 LAM KWOK WAI  林國威 M 00:47:42
10公里先進組-男子 109 40 3265 LO MIN CHI 勞勉之 M 00:47:46
10公里先進組-男子 110 41 3157 KWOK YEE WAH 郭裕華 M 00:47:49
10公里邀請賽 111 T116 CHAN KWOK LUNG 陳國朗 M 00:47:52
10公里先進組-男子 112 42 3383 YAU KWOK LEUNG 邱國亮 M 00:47:52
10公里先進組-男子 113 43 3206 WONG POON YAN 王本恩 M 00:47:54
10公里先進組-男子 114 44 3396 PHILIP LEUNG 梁志偉 M 00:47:57
10公里先進組-男子 115 45 3081 YEUNG KWOK KEE 楊國基 M 00:47:58
10公里先進組-男子 116 46 3346 LIU YUK WING M 00:47:59
10公里邀請賽 117 T124 TSUI TAK SHING 徐德勝 M 00:48:00
10公里先進組-男子 118 47 3334 YEUNG WAI CHUNG 楊偉忠 M 00:48:05
10公里先進組-男子 119 48 3131 CHAN SUM TIN  陳森田 M 00:48:06
10公里先進組-男子 120 49 3412 LAU CHI KIEN 劉志堅 M 00:48:08
10公里先進組-男子 121 50 3208 CHAN YIN HOP 陳賢俠 M 00:48:11
10公里公開組-男子 122 24 1039 WONG YU HEI M 00:48:20
10公里邀請賽 123 T213 LEUNG YAM CHOI 梁蔭才 M 00:48:23
10公里公開組-男子 124 25 1033 CHENG NGAI MAN  鄭毅敏 M 00:48:25
10公里邀請賽 125 T183 YIP LAI CHUEN 葉麗川 F 00:48:30
10公里先進組-男子 126 51 3332 WONG LUEN PAI 黃聯派 M 00:48:31
10公里公開組-女子 127 1 2007 TSANG SO TING 曾素婷 F 00:48:32
10公里先進組-男子 128 52 3138 CHAN WAI KEI 陳偉基 M 00:48:33
10公里先進組-男子 129 53 3236 LUI WAI KEUNG 雷惠強 M 00:48:37
10公里先進組-男子 130 54 3127 LAU KWOK WAN 劉國華 M 00:48:39
10公里學生甲組-男子 131 11 5035 HUNG CHEUK NAM 洪卓男 M 00:48:39
10公里先進組-男子 132 55 3017 LEE CHIN HUNG 李展鴻 M 00:48:45
10公里公開組-女子 133 2 2003 LEUNG LOK MAN  粱樂文 F 00:48:48
10公里邀請賽 134 T251 LEE Kam Suen Kitty 李錦璇 F 00:48:59
10公里先進組-男子 135 56 3375 AU YEUNG SIU HONG M 00:49:02
10公里公開組-男子 136 26 1048 CHEUNG TSZ CHUN 張子俊 M 00:49:07
10公里公開組-男子 137 27 1040 CHAN KIN HEI 陳建熹 M 00:49:09
10公里先進組-女子 138 1 4007 NG YUEN KING 吳宛瓊 F 00:49:09
10公里邀請賽 139 T194 FUNG KWOK HUNG 馮國雄 M 00:49:17
10公里先進組-男子 140 57 3031 HAU KIT YAU  侯偉有 M 00:49:21
10公里先進組-女子 141 2 4054 LEE WAI FONG 李偉芳 F 00:49:22
10公里先進組-男子 142 58 3169 CHAN PANG SHUN 陳鵬信 M 00:49:27
10公里先進組-女子 143 3 4068 CHIM YEE NI 詹綺妮 F 00:49:27
10公里公開組-男子 144 28 1018 LEUNG KA TAT 粱家達 M 00:49:32
10公里先進組-男子 145 59 3165 CHUI PAK CHEUNG 崔伯昌 M 00:49:33
10公里公開組-男子 146 29 1056 SO CHEUK HIM 蘇卓謙 M 00:49:34
10公里公開組-男子 147 30 1021 YIM KEI YUNG 嚴紀勇 M 00:49:35
10公里先進組-男子 148 60 3051 WONG CHI BUN 王志斌 M 00:49:38
10公里先進組-男子 149 61 3013 YU WAI HUNG 余偉雄 M 00:49:41
10公里先進組-女子 150 4 4117 ALICE CHEUNG F 00:49:42
10公里邀請賽 151 T174 CHAN PAK HUNG 陳伯雄 M 00:49:45
10公里公開組-男子 152 31 1085 POON YAT MING 潘逸明 M 00:49:45
10公里邀請賽 153 T253 WONG Hoi Fung  黃凱鋒 M 00:49:53
10公里先進組-男子 154 62 3205 LO MEI KUEN 盧美乾 M 00:49:58
10公里先進組-男子 155 63 3381 LO KWOK KEUNG 羅國強 M 00:50:01
10公里邀請賽 156 T162 CHAN KWUN PAN 陳冠彬 M 00:50:13
10公里公開組-男子 157 32 1141 LEUNG KIN ON 梁健安 M 00:50:13
10公里先進組-男子 158 64 3380 YAU FAN 丘奮 M 00:50:14
10公里公開組-男子 159 33 1073 CHUN LIK SANG 泰力生 M 00:50:14
10公里先進組-男子 160 65 3405 MAK YING CHOI PATRICK 麥英才 M 00:50:15
10公里公開組-男子 161 34 1023 LAW TSZ FUNG  羅子豐 M 00:50:17
10公里先進組-男子 162 66 3357 CHAN WING CHUN 陳穎臻 M 00:50:19
10公里先進組-男子 163 67 3308 LAM PAK LUN 林柏倫 M 00:50:19
10公里先進組-男子 164 68 3093 MUY WAI KEUNG 梅偉強 M 00:50:20
10公里邀請賽 165 T216 SO FRANKY 蘇畯 M 00:50:21
10公里公開組-男子 166 35 1020 TANG CHIN TONG  鄧展堂 M 00:50:27
10公里公開組-男子 167 36 1001 LEE CHU KWAN  李柱坤 M 00:50:28
10公里學生甲組-男子 168 12 5006 TAM YEE HO 譚以皓 M 00:50:29
10公里先進組-男子 169 69 3196 HO KONG CHUEN 何江川 M 00:50:31
10公里先進組-男子 170 70 3258 TSANG HIN FUNG 曾憲鋒 M 00:50:31
10公里邀請賽 171 T155 WONG KA MING  王嘉明 M 00:50:37
10公里先進組-男子 172 71 3372 LAM CHE MAN ANTHONY 林智民 M 00:50:41
10公里先進組-男子 173 72 3354 PAUL YUNG paul yung M 00:50:42
10公里先進組-男子 174 73 3054 PANG WAI MAN  彭衛民 M 00:50:44
10公里邀請賽 175 T134 MAK PUI YUEN M 00:50:46
10公里先進組-男子 176 74 3338 LEE CHEUK PAN M 00:50:46
10公里先進組-男子 177 75 3048 SUEN YAT KEUNG 孫日強 M 00:50:48
10公里邀請賽 178 T125 NG KWOK WAI 吳國偉 M 00:50:54
10公里學生甲組-男子 179 13 5017 TUNG CHIN LUNG 董展隆 M 00:50:55
10公里先進組-男子 180 76 3256 KU KWAN MING 古昆明 M 00:51:04
10公里邀請賽 181 T112 LUNG WAH TUNG 龍莘東 M 00:51:05
10公里先進組-男子 182 77 3328 SO WAI KEI 蘇偉基 M 00:51:06
10公里公開組-男子 183 37 1070 SZE TO KIT 司徒傑 M 00:51:07
10公里先進組-男子 184 78 3410 CHEE LAI SING 季禮聲 M 00:51:08
10公里公開組-女子 185 3 2072 TSANG WAI SZE 曾惠詩 F 00:51:09
10公里先進組-男子 186 79 3107 LAU KWOK HUNG 劉國雄 M 00:51:14
10公里學生甲組-男子 187 14 5007 LAM MAN HEI 林文希 M 00:51:14
10公里公開組-男子 188 38 1003 YIP HUNG CHAU 葉洪洲 M 00:51:16
10公里先進組-男子 189 80 3007 WONG KAM PUI 黃金培 M 00:51:19
10公里先進組-男子 190 81 3088 CHAN HON HO 陳漢浩 M 00:51:21
10公里先進組-男子 191 82 3392 LOK CHUN MING 駱俊明 M 00:51:28
10公里邀請賽 192 T195 TSE MICHEAL 謝廣之 M 00:51:28
10公里邀請賽 193 T113 CHAN KA MAN 陳家文 M 00:51:29
10公里公開組-女子 194 4 2001 LEUNG WING CHING 粱詠湞 F 00:51:32
10公里先進組-女子 195 5 4014 CHUNG CHIN CHING 鍾展晴 F 00:51:33
10公里先進組-男子 196 83 3034 AU HON SHING  區漢勝 M 00:51:35
10公里先進組-男子 197 84 3046 CHOI TAK WING 蔡得榮 M 00:51:36
10公里學生甲組-男子 198 15 5117 CHOW YU LOK 周裕洛 M 00:51:38
10公里邀請賽 199 T235 CHENG WAI HO 鄭偉豪 M 00:51:40
10公里先進組-男子 200 85 3370 HENRY SHAM M 00:51:42
10公里邀請賽 201 T256 Wong Wai Cheong 黃偉昌 M 00:51:43
10公里先進組-男子 202 86 3209 YAU KIN WO  丘建和 M 00:51:45
10公里公開組-男子 203 39 1106 CHAN WING WO 陳永和 M 00:51:55
10公里視障組 男子 204 3 M4 CHAN YAT HO 陳日豪 M 00:51:55
10公里視障組 男子 205 4 M31 HUI CHI KWAN 許志群 M 00:51:58
10公里邀請賽 206 T111 YIM WING LEONG 嚴永亮 M 00:51:59
10公里邀請賽 207 T142 SEZ WAI PANG M 00:52:00
10公里邀請賽 208 T115 CHAN KA KIN 陳家健 M 00:52:06
10公里先進組-男子 209 87 3070 SZETO CHI KING M 00:52:09
10公里公開組-男子 210 40 1111 CHAN HUNG TAT 陳鴻達 M 00:52:09
10公里先進組-男子 211 88 3067 AU WAI MAN  區偉民 M 00:52:12
10公里邀請賽 212 T196 SO KWONG KEUNG 蘇廣強 M 00:52:14
10公里先進組-男子 213 89 3207 FAN CHUN LAM 范春林 M 00:52:14
10公里先進組-男子 214 90 3401 HO MING CHOI SAM 何明載 M 00:52:14
10公里邀請賽 215 T152 WONG KIN YEE 黃健義 M 00:52:15
10公里先進組-男子 216 91 3344 LEE CHUI SING 李志昇 M 00:52:18
10公里先進組-女子 217 6 4079 TAM MEI LAN 譚美蘭 F 00:52:18
10公里先進組-男子 218 92 3099 WONG WING CHEONG 黃永昌 M 00:52:23
10公里公開組-男子 219 41 1017 KWAN CHI HANG 關志恆 M 00:52:25
10公里學生甲組-男子 220 16 5014 YEUNG MAN HIN 楊旻軒 M 00:52:26
10公里先進組-男子 221 93 3314 PANG CHAK HAU 彭澤厚 M 00:52:28
10公里先進組-男子 222 94 3029 CHAN KWOK FAI 陳國輝 M 00:52:29
10公里學生甲組-男子 223 17 5061 FONG KA LUNG 方嘉龍 M 00:52:29
10公里公開組-女子 224 5 2035 YIP YEE KWAN 葉綺君 F 00:52:30
10公里先進組-男子 225 95 3059 LAM WAI HUNG 林偉雄 M 00:52:30
10公里先進組-男子 226 96 3397 LI KWOK SING 李國成 M 00:52:31
10公里公開組-女子 227 6 2047 LEE SIN YIN 李善怡 F 00:52:35
10公里先進組-男子 228 97 3015 CHAN TZE MAN  陳子文 M 00:52:36
10公里邀請賽 229 T264 KWOK CHI MAN 郭志文 M 00:52:42
10公里先進組-男子 230 98 3085 LO YAT WAH 盧日華 M 00:52:42
10公里邀請賽 231 T233 LEUNG KWAI WAN 梁貴雲 M 00:52:43
10公里學生甲組-男子 232 18 5051 CHAK KA WAI 翟家偉 M 00:52:47
10公里先進組-男子 233 99 3172 WU SIN CHUNG 胡善松 M 00:52:48
10公里學生甲組-男子 234 19 5075 CHAN HO YIN 陳浩研 M 00:52:50
10公里先進組-男子 235 100 3159 CHAN KWUN TUN 陳冠東 M 00:52:50
10公里先進組-男子 236 101 3112 FU MAN KIN 符文堅 M 00:52:51
10公里先進組-男子 237 102 3152 YIU CHOI FAN 姚賽帆 M 00:52:52
10公里先進組-男子 238 103 3408 YEUNG KIN CHUNG 楊健忠 M 00:52:54
10公里先進組-男子 239 104 3273 NG CHUN HUNG 吳填雄 M 00:52:54
10公里公開組-男子 240 42 1059 WONG CHI HUNG M 00:52:54
10公里先進組-男子 241 105 H1042 何安榮 M 00:52:55
10公里公開組-男子 242 43 1022 XIANG ZHEN 向震 M 00:52:55
10公里公開組-男子 243 44 1148 TSE KIN BONG 謝建邦 M 00:52:57
10公里先進組-女子 244 7 4116 POON KA YAN BILLIE 潘嘉茵 F 00:52:57
10公里公開組-男子 245 45 1077 WONG KAM HO 黃錦豪 M 00:52:58
10公里先進組-男子 246 106 3400 WONG SIU KWAN 王少君 M 00:52:58
10公里公開組-男子 247 46 1144 AUYEUNG HO 歐陽浩 M 00:53:00
10公里先進組-男子 248 107 3330 CHENG MAN CHUNG 鄭文重 M 00:53:01
10公里邀請賽 249 T114 TANG KAN HEI 鄧勤熹 M 00:53:03
10公里學生甲組-男子 250 20 5026 LI LUO CHENG 李洛成 M 00:53:04
10公里先進組-女子 251 8 4081 CHU KWAN YEE F 00:53:04
10公里先進組-男子 252 108 3343 TSUI TAI 徐大 M 00:53:06
10公里先進組-男子 253 109 3156 WONG WING HOI 黃穎凱 M 00:53:07
10公里先進組-男子 254 110 3259 HO WING FU 何永富 M 00:53:10
10公里先進組-女子 255 9 4119 CHAN KA LAI F 00:53:11
10公里先進組-男子 256 111 3033 LAM YING WAI 林英偉 M 00:53:15
10公里先進組-男子 257 112 3212 SO KWAI WA 蘇桂華 M 00:53:18
10公里先進組-男子 258 113 3211 LAU WING KIN 劉榮堅 M 00:53:18
10公里先進組-男子 259 114 3047 LAI SAIK CHEONG 黎鍚昌 M 00:53:20
10公里先進組-男子 260 115 3167 HO SIU MING 何兆銘 M 00:53:21
10公里先進組-男子 261 116 3145 FU CHI PUN 符致彬 M 00:53:22
10公里邀請賽 262 T236 CHEUNG KA WAH 張嘉華 M 00:53:23
10公里先進組-男子 263 117 3188 TO KANG WAH 杜鏡華 M 00:53:25
10公里公開組-男子 264 47 1055 LAW CHEUNG YAU 劉長友 M 00:53:26
10公里先進組-男子 265 118 3355 YAU MAN FAI 邱文輝 M 00:53:28
10公里邀請賽 266 T131 CHEUNG WAI YAN F 00:53:29
10公里學生甲組-男子 267 21 5002 WONG TSUN HO 黃浚濠 M 00:53:29
10公里先進組-男子 268 119 3404 SIU KOON KAU 蕭冠球 M 00:53:33
10公里先進組-男子 269 120 3197 LEE WING HUNG 李永洪 M 00:53:34
10公里學生甲組-男子 270 22 5040 WAI SHEUNG MAN 衛尚汶 M 00:53:38
10公里學生甲組-男子 270 22 5027 LEE KA PANG 李家鵬 M 00:53:38
10公里學生甲組-男子 272 24 5034 LAU TSZ HIN 劉子軒 M 00:53:38
10公里先進組-男子 273 121 3299 LUI KWOK YAN 呂國恩 M 00:53:39
10公里學生甲組-男子 274 25 5030 YIU CHUN KIT 姚俊傑 M 00:53:40
10公里邀請賽 275 T234 IP FO TUNG 葉埠東 M 00:53:42
10公里學生甲組-男子 276 26 5044 YE ZHI HONG 葉志洪 M 00:53:44
10公里公開組-男子 277 48 1087 SIU KAI WA 蕭啟華 M 00:53:44
10公里公開組-男子 278 49 1124 LEUNG KIN SHING 梁建成 M 00:53:45
10公里先進組-男子 279 122 3384 KONG LEE MAN RAYMOND M 00:53:45
10公里先進組-女子 280 10 4021 GEL FUNG  F 00:53:46
10公里先進組-男子 281 123 3327 WONG SIK CHUEN M 00:53:47
10公里先進組-女子 282 11 4035 YAU LAI NA  游麗娜 F 00:53:51
10公里先進組-男子 283 124 3116 TAI YUEN KWAN 戴源均 M 00:53:54
10公里邀請賽 284 T255 Tang Wai Hung 鄧偉雄 M 00:53:56
10公里學生甲組-女子 285 1 6015 LAI HUI LING 賴煦齢 F 00:53:56
10公里邀請賽 286 T231 NG NGAI YIP 吳毅業 F 00:53:57
10公里先進組-男子 287 125 3004 CHAN WAI CHEUNG 陳偉祥 M 00:53:58
10公里先進組-女子 288 12 4085 WONG WAI YEE 王惠兒 F 00:53:59
10公里邀請賽 289 T263 HO MAN WU 何文湖 M 00:54:01
10公里公開組-女子 290 7 2071 WONG KA YU 黃家瑜 F 00:54:06
10公里先進組-男子 291 126 3414 LEUNG SIU FAI 梁紹輝 M 00:54:07
10公里先進組-女子 292 13 4026 LAU SAU HEUNG 劉秀香 F 00:54:10
10公里先進組-女子 293 14 4029 YUNG OI KUEN 翁愛娟  F 00:54:14
10公里先進組-男子 294 127 3125 LIU KIT WING  廖傑榮 M 00:54:16
10公里先進組-女子 295 15 4062 TAI SAU KING 戴秀琼 F 00:54:19
10公里公開組-男子 296 50 1044 TANG CHI KWONG 鄧志光 M 00:54:19
10公里邀請賽 297 T121 LAM SIU FUNG 林笑鳯 F 00:54:23
10公里先進組-男子 298 128 3341 LEE YUN LAM 李潤林 M 00:54:25
10公里公開組-男子 299 51 1072 FUNG KA LUN 馮家倫 M 00:54:34
10公里先進組-男子 300 129 3324 FONG SIU WA JOHN 方少華 M 00:54:36
10公里公開組-男子 301 52 1153 SO KOON MAN 蘇觀文 M 00:54:39
10公里先進組-女子 302 16 4017 CHONG YUK YING 莊玉英 F 00:54:40
10公里公開組-男子 303 53 1105 TANG JIANSONG 湯健松 M 00:54:40
10公里公開組-男子 304 54 1029 CHAN MAN FUNG 陳文楓 M 00:54:41
10公里邀請賽 305 T246 Kwok Ka Chun 郭家俊 M 00:54:41
10公里先進組-男子 306 130 3374 CHOW WANG CHUN 鄒宏俊 M 00:54:43
10公里邀請賽 307 T181 CHUNG CHIK SUM 鐘積心 F 00:54:45
10公里學生甲組-男子 308 27 5003  HO CHUN WAN 何振運 M 00:54:46
10公里公開組-男子 309 55 1066 CHAN CHUN HING 陳俊興 M 00:54:46
10公里學生甲組-男子 310 28 5039 YAN SHUN YAT 顏淳一 M 00:54:46
10公里先進組-女子 311 17 4055 NG YI PING  吳伊苹 F 00:54:47
10公里公開組-男子 312 56 1143 SIU SIN HANG 邵善桁 M 00:54:49
10公里先進組-男子 313 131 3040 CHUNG KWAN MO 鍾君武 M 00:54:52
10公里先進組-男子 314 132 3041 CHAN CHEONG YIU 陳昌耀 M 00:54:53
10公里公開組-男子 315 57 1091 CHEUNG HIN 張軒 M 00:54:55
10公里邀請賽 316 T261 LEE PUI SHAN 李佩珊 F 00:54:55
10公里先進組-男子 317 133 3021 CHEUNG YONG KWAN  張容坤 M 00:54:56
10公里先進組-男子 318 134 3061 YIP WA SANG 葉華生 M 00:54:59
10公里公開組-女子 319 8 2054 SUN XUTING 孫旭婷 F 00:54:59
10公里先進組-男子 320 135 3052 KO KAM WING 高錦榮 M 00:55:01
10公里先進組-男子 321 136 3026 NGAI KWOK LIANG 魏國樑 M 00:55:03
10公里先進組-女子 322 18 4022 MA SIU PING 馬少萍 F 00:55:04
10公里公開組-男子 323 58 1062 CHEUNG HO CHUEN HANK 鄭浩川 M 00:55:06
10公里先進組-男子 324 137 3108 MICHAEL WU 胡仲良 M 00:55:07
10公里先進組-男子 325 138 3242 CHAN SHUN KIN 陳信健 M 00:55:09
10公里公開組-男子 326 59 1061 HO WAI LUNG 何偉龍 M 00:55:09
10公里先進組-女子 327 19 4011 FUNG YAN 馮恩 F 00:55:10
10公里先進組-男子 328 139 3183 CHENG CHUN YUEN 鄭竣元 M 00:55:10
10公里先進組-女子 329 20 4038 LUK WAI FOON F 00:55:17
10公里邀請賽 330 T161 CHEUNG HIU YEE 鄭曉兒 F 00:55:18
10公里先進組-男子 331 140 3262 NG HON HING 伍漢興 M 00:55:19
10公里公開組-男子 332 60 1116 CHUNG KIN KEUNG 鍾健強 M 00:55:20
10公里先進組-男子 333 141 3133 CHEUNG CHAU MING 張秋明 M 00:55:22
10公里先進組-男子 334 142 3101 TANG WAI HUNG 鄧偉雄 M 00:55:22
10公里公開組-女子 335 9 2009 YIU HONG LAI 姚康麗 F 00:55:24
10公里邀請賽 336 T136 IP CHING M 00:55:24
10公里先進組-女子 337 21 4097 LIU TSZ TING CATHERINE 廖芷聤 F 00:55:26
10公里學生甲組-男子 338 29 5066 CHENG CHUN YIN 鄭俊賢 M 00:55:27
10公里公開組-女子 339 10 2045 PANG YUEN CHUI 彭婉翠 F 00:55:28
10公里先進組-男子 340 143 3036 PANG SING KWAN 彭盛焜 M 00:55:29
10公里先進組-男子 341 144 3317 SZE FU KEUNG 施富強 M 00:55:32
10公里邀請賽 342 T223 MAK HIM LONG 麥謙朗 M 00:55:34
10公里邀請賽 343 T122 LAW SAM TAI 羅三娣 M 00:55:35
10公里先進組-男子 344 145 3182 LAI CHI CHEONG 黎志昌 M 00:55:39
10公里先進組-男子 345 146 3151 HO FUK LIN  何福年 M 00:55:40
10公里先進組-男子 346 147 3246 LAW KOON WAH 羅冠華 M 00:55:42
10公里先進組-男子 347 148 3245 LAW CHI MING 羅志明 M 00:55:43
10公里學生甲組-男子 348 30 5062 SUEN WONG WAI 孫旺維 M 00:55:43
10公里公開組-男子 349 61 1067 HO CHEUK HIM 何卓謙 M 00:55:45
10公里先進組-男子 350 149 3053 CHEUNG WAI KWONG 張偉光 M 00:55:47
10公里先進組-男子 351 150 3247 KWOK CHI MING 郭志明 M 00:55:48
10公里先進組-男子 352 151 3230 SO CHUNG LAP 蘇忠立 M 00:55:48
10公里公開組-女子 353 11 2068 CHAN LOK YAN 陳洛茵 F 00:55:49
10公里先進組-男子 354 152 3049 TO KWOK BUN 杜國彬 M 00:55:49
10公里先進組-男子 355 153 3126 WONG KIM WING  王劍明 M 00:55:51
10公里先進組-男子 356 154 3016 YIP CHI WAI  葉志偉 M 00:55:51
10公里先進組-男子 357 155 3153 YEUNG SHAN  楊山 M 00:55:53
10公里學生甲組-男子 358 31 5016 LO HO PUI MARIO 羅皓倍 M 00:55:57
10公里先進組-男子 359 156 3148 MAN KWONG SUN 萬廣新 M 00:55:57
10公里公開組-男子 360 62 1054 SUEN SHUK PING 孫淑平 M 00:55:59
10公里先進組-男子 361 157 3225 WONJG HING CHUEN 王興全 M 00:56:00
10公里公開組-女子 362 12 2046 PANG WAI YING 彭慧瑩 F 00:56:00
10公里先進組-男子 363 158 3137 HAU CHI LEUNG 侯志良 M 00:56:02
10公里先進組-男子 364 159 3309 PANG KIN KONG 彭健江 M 00:56:03
10公里先進組-男子 365 160 3226 YUEN KA HO 阮家豪 M 00:56:03
10公里視障組 男子 366 5 M24 WONG YIU TONG 黃耀棠 M 00:56:03
10公里先進組-男子 367 161 3089 CHAN WAN SHONG M 00:56:06
10公里公開組-男子 368 63 1064 NG WING CHUN 吳泳俊 M 00:56:07
10公里先進組-男子 369 162 3134 TSUI WOO TIM 崔和添 M 00:56:11
10公里先進組-男子 370 163 3050 不知名 不知名 M 00:56:12
10公里邀請賽 371 T211 Leung Kit Sum 梁潔森 F 00:56:13
10公里邀請賽 372 T154 OR WAI HUNG  柯蔚鴻 M 00:56:14
10公里先進組-男子 373 164 3114 TANG HUNG KAM 鄧洪金 M 00:56:15
10公里先進組-男子 374 165 3386 CHOW KIN WAH 周建華 M 00:56:16
10公里學生甲組-男子 375 32 5072 WONG TIN LUN 黃天麟 M 00:56:19
10公里公開組-男子 376 64 1121 CHENG CHUN KIT 鄭俊傑 M 00:56:19
10公里先進組-女子 377 22 4016 CHAN KWAN YU 陳君瑜 F 00:56:19
10公里先進組-男子 378 166 3123 NG SHUI WA 吳垂華 M 00:56:20
10公里先進組-女子 379 23 4034 TANG CHOI LAN 鄧彩蘭 F 00:56:21
10公里先進組-男子 380 167 3294 Chan Sai Kwong 陳世光 M 00:56:21
10公里先進組-男子 381 168 3039 KAN TZE FAI 簡子輝 M 00:56:21
10公里先進組-男子 382 169 3005 CHAN WAI SING  陳偉升 M 00:56:22
10公里先進組-男子 383 170 3313 WU MAN HO M 00:56:24
10公里先進組-男子 384 171 3141 LEUNG MAN LUNG 蔡文龍 M 00:56:24
10公里先進組-男子 385 172 3335 OR YEE MAN KEVIN 柯宜文 M 00:56:25
10公里先進組-女子 386 24 4115 CHIK SIU KUEN RUBY F 00:56:26
10公里邀請賽 387 T193 WU HEI CHUN F 00:56:27
10公里先進組-男子 388 173 3198 LEE WAI PING 李偉平 M 00:56:27
10公里邀請賽 389 T225 FAN WAI MING 范偉明 M 00:56:30
10公里先進組-男子 390 174 3349 POON CHI HUNG 潘志雄 M 00:56:41
10公里先進組-男子 391 175 3195 NGAI PAK LAM 魏柏林 M 00:56:42
10公里先進組-男子 392 176 3160 SHEK KAM SUN 石錦新 M 00:56:42
10公里先進組-女子 393 25 4030 WONG CHING MAN 黃靜雯 F 00:56:44
10公里學生甲組-男子 394 33 5001 PANG CHI HIN 彭智軒 M 00:56:46
10公里先進組-男子 395 177 3363 WONG KA CHUN M 00:56:48
10公里先進組-男子 396 178 3289 LEE CHI MING 李志明 M 00:56:49
10公里公開組-男子 397 65 1095 YEUNG WUI MAN  楊滙民 M 00:56:51
10公里視障組 男子 398 6 M7 YIK WING SUM 易永森 M 00:56:53
10公里學生甲組-男子 399 34 5067 LEUNG MAN HIN 梁文軒 M 00:57:00
10公里先進組-男子 400 179 3261 WAN MUN PUI 溫滿培 M 00:57:00
10公里視障組 男子 401 7 M23 TAMTAT MING ADAM 譚達明 M 00:57:00
10公里公開組-男子 402 66 1004 LAU PAK KZN 劉柏堅 M 00:57:01
10公里先進組-女子 403 26 4032 YIP YUE CHING 葉裕菁 F 00:57:05
10公里公開組-男子 404 67 1114 KONG KWOK CHEONG 江國昌 M 00:57:09
10公里先進組-男子 405 180 3276 LUI TAK SHING 雷得成 M 00:57:10
10公里先進組-女子 406 27 4039 SHEK CHOI WAN